Погода в Урень

Россия / Нижегородская область     57°27′46″N   45°47′58″E
темп.,
°C
ветер,
м/с
пор.,
м/с
влажн.,
%
обл.,
%
осадки,
мм/ч
давл.,
гПа
погр.,
м
11 мая, вт
вт1100:00+5ссв4119711 0.0 1027312
03:00+4ссв399816 0.0 1028234
06:00+7ссв410924 0.0 1028292
09:00+12св46751 0.0 1029536
12:00+17св44630 0.0 1029867
15:00+19всв34593 0.0 1028986
18:00+18всв24723 0.0 1028195
21:00+12всв23890 0.0 102943
12 мая, ср
ср1200:00+11всв23920 0.0 103059
03:00+10всв23940 0.0 102946
06:00+13св35870 0.0 1030169
09:00+19всв34675 0.0 1029496
12:00+23в45545 0.0 10281200
15:00+24вюв46483 0.0 10262076
18:00+21в3664100 0.0 1026165
21:00+17юв227696 0.0 102621
13 мая, чт
чт1300:00+15ю2279100 0.0 102617
03:00+14в228234 0.0 102623
06:00+15вюв267726 0.0 1026157
09:00+20юв366298 0.0 1025488
12:00+20юв48567 0.0 1025607
15:00+23ююв694586 0.0 10232024
18:00+16юв3128181 0.1 1023429
21:00+16юв4147764 0.1 1021439
14 мая, пт
пт1400:00+16юв3117890 0.1 1020331
03:00+13ююв398973 0.1 1020218
06:00+15ю36830 0.0 1021237
09:00+20ю346789 0.1 1020699
12:00+24ю3450100 0.0 10201361
15:00+24ююз2348100 0.0 10191303
18:00+22ююз236525 0.0 101998
21:00+16ю22852 0.0 101913
15 мая, сб
сб1500:00+15ююв229380 0.0 101820
03:00+15юв2395100 0.1 101860
06:00+17ююв278570 0.0 1017189
09:00+22ююв486146 0.0 1016527
12:00+27ю6113761 0.0 10151382
15:00+27ю6133647 0.0 10141548
18:00+23ю613465 0.0 1013930
21:00+20ю516575 0.0 1012647